Back to catalog

STARLINK-11634

AliveCommunicationsVLEO
NORAD 63673·PAYLOAD·🇺🇸 United States

Launched Apr 28, 2025 from Cape Canaveral Space Force Station

Loading…

Next Passes (next 24 hours)

TLE

FreshSource: CelesTrak SupGP

Epoch: Sep 14, 2026, 22:37 UTC

1 63673C 25085K   26257.94284722  .00052558  00000+0  40813-3 0  2575
2 63673  43.0005 217.5989 0001524 254.9780 230.1106 15.70817729    18

Track STARLINK-11634 in real time with AllMySat

Download on the App Store